sat.trackr.live / text

‹ back to catalog

STARLINK-30487

NORAD 57924 · 2023-147M

PAYLOAD ACTIVE UNKNOWN

§ Identity

Operator
Country
US
Launch date
2023-09-24
Launch site
AFETR
Launch vehicle
Mass (kg)
RCS (m²)

Purposes: comms

External: N2YO · Heavens-Above · Gunter

§ Orbital elements

Epoch: 2026-09-20T09:29:58.258752Z

Period
94.27 min
Inclination
43.0038°
Eccentricity
0.0001318
Mean motion
15.27574718 rev/d
Perigee alt
482.2 km
Apogee alt
484.0 km
Semi-major
6,861.2 km
B*
-6.9407e-6
RAAN
309.1827°
Arg perigee
262.3163°
Mean anomaly
97.7539°
Rev number
16,636

§ Raw data

STARLINK-304871 57924U 23147M   26263.39581318 -.00000453  00000+0 -69407-5 0  99952 57924  43.0038 309.1827 0001318 262.3163  97.7539 15.27574718166362

JSON: /api/v1/satellites/57924 · /tle

For live sub-satellite position, see the globe view (requires WebGL).

§ Visibility from observer

Set your observer location to see the next 7 days of passes ≥ 10°. The values pass through the URL so the page stays shareable.

No JS? Fill the form by hand. The geolocation button needs JavaScript.